User: anonymous   Login
Location: Black Rock Desert
(40.7548°N, 119.2364°W)
Time: 05:13:36
(UTC-07:00)
Language:

Cosmos 1340 Rocket - Orbit

View from above orbital plane
View from above orbital plane
View from above satellite
View from above satellite

Ground track
Ground track

The orbit data is extracted from the following two-line orbital elements,

1 13068U 82013B   14302.10724426  .00005276  00000-0  37175-3 0  5428
2 13068 081.2051 239.5478 0021502 248.6593 111.2335 15.04674998778676
Epoch (UTC): 29 October 2014 02:34:25
Eccentricity: 0.0021502
inclination: 81.2051°
perigee height: 537 km
apogee height: 567 km
right ascension of ascending node: 239.5478°
argument of perigee: 248.6593°
revolutions per day: 15.04674998
mean anomaly at epoch: 111.2335°
orbit number at epoch: 77867

The dashed part of the orbit path shows where the satellite is in the earth's shadow,  

DLR